Starlink 33842

operational
NORAD ID: 63782 Int'l Des: 2025-091 Owner: SPXS Country: US Constellation: starlink
LEOCIRCULAR

Starlink 33842について

説明を読み込み中...

リアルタイム位置

3D地球を読み込み中...

次回通過

高度履歴

Altitude vs Time

uPlot chart will show altitude changes over time

軌道要素

1 63782U 25091H 26034.96107985 .00033775 00000-0 12309-2 0 9995
2 63782 43.0029 243.0303 0001739 274.7752 85.2901 15.27589974 43835
Epoch: Feb 3, 2026 • Age: 15 hours

現在のステータス

高度 494.3 km
速度 7.62 km/s
衛星直下点 -41.26°S, 178.87°E
打ち上げ日 May 2, 2025
運用期間 0.7 years
タイプ internet

技術仕様

分類 Payload
質量 575.00 kg
乾燥質量 530.00 kg
総質量 575.00 kg
長さ 0.30 m
直径 4.10 m
スパン 29.00 m
形状 Box + pan
製造者 SPXS
バスタイプ Starlink V2MO
フェーズステータス In Orbit
所有者/国 SPXS/US

大規模コンステレーション

Loading constellations...